(計算時間: 0.051秒, 共找到 88968 筆資料,顯示第 101 到 200 筆)
可用欄位參考
GUID date humidity temperature pm25 geox geoy
54dc1e06-61ac-489f-a77f-0c3cd38a10d1 2015-07-27 14:42:00 53.166666666667 28.583333333333 1.35 120.218 23.006
54dc1e06-61ac-489f-a77f-0c3cd38a10d1 2015-07-27 14:43:00 52.25 28.25 1.2441666666667 120.218 23.006
54dc1e06-61ac-489f-a77f-0c3cd38a10d1 2015-07-27 14:44:00 52.333333333333 29 2.4416666666667 120.218 23.006
54dc1e06-61ac-489f-a77f-0c3cd38a10d1 2015-07-27 14:45:00 51.916666666667 28.916666666667 0.015833333333333 120.218 23.006
54dc1e06-61ac-489f-a77f-0c3cd38a10d1 2015-07-27 14:46:00 51.5 29.083333333333 2.4891666666667 120.218 23.006
54dc1e06-61ac-489f-a77f-0c3cd38a10d1 2015-07-27 14:47:00 51.916666666667 28.75 1.4041666666667 120.218 23.006
54dc1e06-61ac-489f-a77f-0c3cd38a10d1 2015-07-27 14:48:00 52.25 28.333333333333 2.025 120.218 23.006
54dc1e06-61ac-489f-a77f-0c3cd38a10d1 2015-07-27 14:49:00 52.75 28.5 0.905 120.218 23.006
54dc1e06-61ac-489f-a77f-0c3cd38a10d1 2015-07-27 14:50:00 53.666666666667 28.666666666667 0.1325 120.218 23.006
54dc1e06-61ac-489f-a77f-0c3cd38a10d1 2015-07-27 14:51:00 52.583333333333 28.666666666667 0.265 120.218 23.006
54dc1e06-61ac-489f-a77f-0c3cd38a10d1 2015-07-27 14:52:00 52.083333333333 29 2.9616666666667 120.218 23.006
54dc1e06-61ac-489f-a77f-0c3cd38a10d1 2015-09-05T12:52:00 42.666666666667 31.166666666667 0 120.218 23.006
54dc1e06-61ac-489f-a77f-0c3cd38a10d1 2015-07-27 14:53:00 51.833333333333 29.083333333333 0.15416666666667 120.218 23.006
54dc1e06-61ac-489f-a77f-0c3cd38a10d1 2015-07-27 14:54:00 52.25 28.75 0 120.218 23.006
54dc1e06-61ac-489f-a77f-0c3cd38a10d1 2015-07-27 14:55:00 52.166666666667 29.583333333333 0.96833333333333 120.218 23.006
54dc1e06-61ac-489f-a77f-0c3cd38a10d1 2015-07-27 14:56:00 52.416666666667 28.416666666667 3.0625 120.218 23.006
54dc1e06-61ac-489f-a77f-0c3cd38a10d1 2015-07-27 14:57:00 51.75 28.75 1.9183333333333 120.218 23.006
54dc1e06-61ac-489f-a77f-0c3cd38a10d1 2015-07-27 14:58:00 52.25 28.25 1.0741666666667 120.218 23.006
54dc1e06-61ac-489f-a77f-0c3cd38a10d1 2015-07-27 14:59:00 52.916666666667 28.5 1.3941666666667 120.218 23.006
54dc1e06-61ac-489f-a77f-0c3cd38a10d1 2015-07-27 15:00:00 51.333333333333 28.5 0.0225 120.218 23.006
54dc1e06-61ac-489f-a77f-0c3cd38a10d1 2015-07-27 15:01:00 51 28.75 0.87083333333333 120.218 23.006
54dc1e06-61ac-489f-a77f-0c3cd38a10d1 2015-07-27 15:02:00 50.833333333333 28.416666666667 1.8291666666667 120.218 23.006
54dc1e06-61ac-489f-a77f-0c3cd38a10d1 2015-07-27 15:03:00 51.25 28.333333333333 1.0641666666667 120.218 23.006
54dc1e06-61ac-489f-a77f-0c3cd38a10d1 2015-07-27 15:04:00 50.666666666667 28.75 1.4416666666667 120.218 23.006
54dc1e06-61ac-489f-a77f-0c3cd38a10d1 2015-07-27 15:05:00 50.916666666667 28.583333333333 1.4716666666667 120.218 23.006
54dc1e06-61ac-489f-a77f-0c3cd38a10d1 2015-07-27 15:06:00 50.166666666667 29 0 120.218 23.006
54dc1e06-61ac-489f-a77f-0c3cd38a10d1 2015-07-27 15:07:00 50.666666666667 29.166666666667 0.4425 120.218 23.006
54dc1e06-61ac-489f-a77f-0c3cd38a10d1 2015-07-27 15:08:00 50.916666666667 29.25 1.4908333333333 120.218 23.006
54dc1e06-61ac-489f-a77f-0c3cd38a10d1 2015-07-27 15:09:00 52.833333333333 28.416666666667 1.1741666666667 120.218 23.006
54dc1e06-61ac-489f-a77f-0c3cd38a10d1 2015-07-27 15:10:00 51.833333333333 29 0.82833333333333 120.218 23.006
54dc1e06-61ac-489f-a77f-0c3cd38a10d1 2015-07-27 15:11:00 50.833333333333 28.833333333333 0.065833333333333 120.218 23.006
54dc1e06-61ac-489f-a77f-0c3cd38a10d1 2015-07-27 15:12:00 51.416666666667 28.666666666667 2.5741666666667 120.218 23.006
54dc1e06-61ac-489f-a77f-0c3cd38a10d1 2015-07-27 15:13:00 50.333333333333 28.583333333333 1.3508333333333 120.218 23.006
54dc1e06-61ac-489f-a77f-0c3cd38a10d1 2015-07-27 15:14:00 51.333333333333 29.25 0.95416666666667 120.218 23.006
54dc1e06-61ac-489f-a77f-0c3cd38a10d1 2015-07-27 15:15:00 50.583333333333 28.833333333333 2.1316666666667 120.218 23.006
54dc1e06-61ac-489f-a77f-0c3cd38a10d1 2015-07-27 15:16:00 50.333333333333 29.416666666667 2.86 120.218 23.006
54dc1e06-61ac-489f-a77f-0c3cd38a10d1 2015-07-27 15:17:00 50.583333333333 28.583333333333 5.0508333333333 120.218 23.006
54dc1e06-61ac-489f-a77f-0c3cd38a10d1 2015-07-27 15:18:00 51.25 28.75 2.1733333333333 120.218 23.006
54dc1e06-61ac-489f-a77f-0c3cd38a10d1 2015-07-27 15:19:00 52.083333333333 28.25 0.15166666666667 120.218 23.006
54dc1e06-61ac-489f-a77f-0c3cd38a10d1 2015-07-27 15:20:00 49.833333333333 29.083333333333 0.84 120.218 23.006
54dc1e06-61ac-489f-a77f-0c3cd38a10d1 2015-07-27 15:21:00 49.416666666667 28.5 0 120.218 23.006
54dc1e06-61ac-489f-a77f-0c3cd38a10d1 2015-07-27 15:22:00 50.333333333333 28.75 1.0991666666667 120.218 23.006
54dc1e06-61ac-489f-a77f-0c3cd38a10d1 2015-07-27 15:23:00 49.833333333333 28.5 0.43916666666667 120.218 23.006
54dc1e06-61ac-489f-a77f-0c3cd38a10d1 2015-07-27 15:24:00 51.75 28.5 0.23833333333333 120.218 23.006
54dc1e06-61ac-489f-a77f-0c3cd38a10d1 2015-07-27 15:25:00 51.083333333333 28.5 0.063333333333333 120.218 23.006
54dc1e06-61ac-489f-a77f-0c3cd38a10d1 2015-07-27 15:26:00 50 29.083333333333 0.16416666666667 120.218 23.006
54dc1e06-61ac-489f-a77f-0c3cd38a10d1 2015-07-27 15:27:00 50 29.166666666667 0 120.218 23.006
54dc1e06-61ac-489f-a77f-0c3cd38a10d1 2015-07-27 15:28:00 50.833333333333 28.75 1.8291666666667 120.218 23.006
54dc1e06-61ac-489f-a77f-0c3cd38a10d1 2015-07-27 15:29:00 51.416666666667 28.416666666667 0.73666666666667 120.218 23.006
54dc1e06-61ac-489f-a77f-0c3cd38a10d1 2015-07-27 15:30:00 50.333333333333 28.416666666667 2.545 120.218 23.006
54dc1e06-61ac-489f-a77f-0c3cd38a10d1 2015-07-27 15:31:00 50.166666666667 29.083333333333 0.99833333333333 120.218 23.006
54dc1e06-61ac-489f-a77f-0c3cd38a10d1 2015-07-27 15:32:00 51.916666666667 28.583333333333 0 120.218 23.006
54dc1e06-61ac-489f-a77f-0c3cd38a10d1 2015-07-27 15:33:00 50.545454545455 28.636363636364 0.92545454545455 120.218 23.006
54dc1e06-61ac-489f-a77f-0c3cd38a10d1 2015-07-27 15:34:00 49.666666666667 28.75 2.3158333333333 120.218 23.006
54dc1e06-61ac-489f-a77f-0c3cd38a10d1 2015-07-27 15:35:00 50.583333333333 29.25 1.1241666666667 120.218 23.006
54dc1e06-61ac-489f-a77f-0c3cd38a10d1 2015-07-27 15:36:00 50.083333333333 29.25 4.6858333333333 120.218 23.006
54dc1e06-61ac-489f-a77f-0c3cd38a10d1 2015-07-27 15:37:00 51.833333333333 29.166666666667 0.375 120.218 23.006
54dc1e06-61ac-489f-a77f-0c3cd38a10d1 2015-07-27 15:38:00 50.166666666667 28.416666666667 0 120.218 23.006
54dc1e06-61ac-489f-a77f-0c3cd38a10d1 2015-07-27 15:39:00 49.833333333333 29.166666666667 0.98416666666667 120.218 23.006
54dc1e06-61ac-489f-a77f-0c3cd38a10d1 2015-07-27 15:40:00 50.333333333333 28.833333333333 0.225 120.218 23.006
54dc1e06-61ac-489f-a77f-0c3cd38a10d1 2015-07-27 15:41:00 49.083333333333 29.083333333333 1.0983333333333 120.218 23.006
54dc1e06-61ac-489f-a77f-0c3cd38a10d1 2015-07-27 15:42:00 48.916666666667 28.5 0.155 120.218 23.006
54dc1e06-61ac-489f-a77f-0c3cd38a10d1 2015-07-27 15:43:00 49.75 28.666666666667 0.845 120.218 23.006
54dc1e06-61ac-489f-a77f-0c3cd38a10d1 2015-07-27 15:44:00 50.5 28.916666666667 0.1775 120.218 23.006
54dc1e06-61ac-489f-a77f-0c3cd38a10d1 2015-07-27 15:45:00 49.5 28.916666666667 2.1641666666667 120.218 23.006
54dc1e06-61ac-489f-a77f-0c3cd38a10d1 2015-07-27 15:46:00 50.833333333333 29.333333333333 4.5116666666667 120.218 23.006
54dc1e06-61ac-489f-a77f-0c3cd38a10d1 2015-07-27 15:47:00 50.75 29.166666666667 2.9908333333333 120.218 23.006
54dc1e06-61ac-489f-a77f-0c3cd38a10d1 2015-07-27 15:48:00 49.75 29 1.35 120.218 23.006
54dc1e06-61ac-489f-a77f-0c3cd38a10d1 2015-07-27 15:49:00 51.083333333333 28.5 0.37 120.218 23.006
54dc1e06-61ac-489f-a77f-0c3cd38a10d1 2015-07-27 15:50:00 50.083333333333 29.333333333333 0.395 120.218 23.006
54dc1e06-61ac-489f-a77f-0c3cd38a10d1 2015-07-27 15:51:00 50.416666666667 28.25 0.5625 120.218 23.006
54dc1e06-61ac-489f-a77f-0c3cd38a10d1 2015-07-27 15:52:00 49.75 29.25 0.62083333333333 120.218 23.006
54dc1e06-61ac-489f-a77f-0c3cd38a10d1 2015-07-27 15:53:00 50.5 28.416666666667 1.3333333333333 120.218 23.006
54dc1e06-61ac-489f-a77f-0c3cd38a10d1 2015-07-27 15:54:00 50.416666666667 29.583333333333 1.8791666666667 120.218 23.006
54dc1e06-61ac-489f-a77f-0c3cd38a10d1 2015-07-27 15:55:00 49 29.416666666667 0.48083333333333 120.218 23.006
54dc1e06-61ac-489f-a77f-0c3cd38a10d1 2015-07-27 15:56:00 50.916666666667 29 0.0058333333333333 120.218 23.006
54dc1e06-61ac-489f-a77f-0c3cd38a10d1 2015-07-27 15:57:00 50.416666666667 28.166666666667 0.77416666666667 120.218 23.006
54dc1e06-61ac-489f-a77f-0c3cd38a10d1 2015-07-27 15:58:00 51 28.666666666667 1.0366666666667 120.218 23.006
54dc1e06-61ac-489f-a77f-0c3cd38a10d1 2015-07-27 15:59:00 51.416666666667 28.75 1.3275 120.218 23.006
54dc1e06-61ac-489f-a77f-0c3cd38a10d1 2015-07-27 16:00:00 50 28.916666666667 0.60083333333333 120.218 23.006
54dc1e06-61ac-489f-a77f-0c3cd38a10d1 2015-07-27 16:01:00 49.916666666667 29.166666666667 0.12583333333333 120.218 23.006
54dc1e06-61ac-489f-a77f-0c3cd38a10d1 2015-07-27 16:02:00 50.083333333333 28.833333333333 4.8733333333333 120.218 23.006
54dc1e06-61ac-489f-a77f-0c3cd38a10d1 2015-07-27 16:03:00 50.75 29.166666666667 0.21 120.218 23.006
54dc1e06-61ac-489f-a77f-0c3cd38a10d1 2015-07-27 16:04:00 49.333333333333 28.916666666667 3.2391666666667 120.218 23.006
54dc1e06-61ac-489f-a77f-0c3cd38a10d1 2015-07-27 16:05:00 48.583333333333 29.25 3.0058333333333 120.218 23.006
54dc1e06-61ac-489f-a77f-0c3cd38a10d1 2015-07-27 16:06:00 49.333333333333 28.333333333333 0 120.218 23.006
54dc1e06-61ac-489f-a77f-0c3cd38a10d1 2015-07-27 16:07:00 50.416666666667 29.25 0 120.218 23.006
54dc1e06-61ac-489f-a77f-0c3cd38a10d1 2015-07-27 16:08:00 49.75 28.333333333333 1.885 120.218 23.006
54dc1e06-61ac-489f-a77f-0c3cd38a10d1 2015-07-27 16:09:00 48.583333333333 28.916666666667 0.66583333333333 120.218 23.006
54dc1e06-61ac-489f-a77f-0c3cd38a10d1 2015-07-27 16:10:00 49.833333333333 29.416666666667 0.1025 120.218 23.006
54dc1e06-61ac-489f-a77f-0c3cd38a10d1 2015-07-27 16:11:00 48.333333333333 28.75 1.2416666666667 120.218 23.006
54dc1e06-61ac-489f-a77f-0c3cd38a10d1 2015-07-27 16:12:00 48.333333333333 29 2.0733333333333 120.218 23.006
54dc1e06-61ac-489f-a77f-0c3cd38a10d1 2015-07-27 16:13:00 49.583333333333 28.75 2.6466666666667 120.218 23.006
54dc1e06-61ac-489f-a77f-0c3cd38a10d1 2015-07-27 16:14:00 48.25 29.916666666667 0.0425 120.218 23.006
54dc1e06-61ac-489f-a77f-0c3cd38a10d1 2015-07-27 16:15:00 48.166666666667 29.083333333333 1.4833333333333 120.218 23.006
54dc1e06-61ac-489f-a77f-0c3cd38a10d1 2015-07-27 16:16:00 49.166666666667 28.416666666667 0.56666666666667 120.218 23.006
54dc1e06-61ac-489f-a77f-0c3cd38a10d1 2015-07-27 16:17:00 48.416666666667 29.083333333333 1.5808333333333 120.218 23.006
54dc1e06-61ac-489f-a77f-0c3cd38a10d1 2015-07-27 16:18:00 48.583333333333 28.833333333333 1.1875 120.218 23.006
54dc1e06-61ac-489f-a77f-0c3cd38a10d1 2015-07-27 16:19:00 48.666666666667 29.333333333333 0.47333333333333 120.218 23.006
54dc1e06-61ac-489f-a77f-0c3cd38a10d1 2015-07-27 16:20:00 48.25 29.333333333333 0.92166666666667 120.218 23.006